STARLINK-1468 (45734 NORAD) Tracking and Keplerian Element Data

This shows tracking and keplerian element data for the satellite.

Feedback or suggestion? Click here.




ElementValue
Catalog45734
NameSTARLINK-1468
Epoch Orbit550
Epoch Day192.16668981
Epoch Year2020
RAAN165.914
Inclination53.0021
Eccentricity0.000116
Argument of Perigee104.3647
Mean Anonmoly202.3146
Mean Motion15.49814475
Decay Rate-0.01082556
L11 45734U 20038E 20192.16668981 -.01082556 00000-0 -21103-1 0 9992
L22 45734 53.0021 165.9140 0001160 104.3647 202.3146 15.49814475 5501

Live tracking and technical data element details for STARLINK-1468 (NORAD 45734). STARLINK-1468 can be tracked NOW for your location showing map with azimuth and elevation plus other details from your city location.

Track the satellite on the map from your city or location and see movement details for azimuth, elevation, latitude, longitude, range, height, and movement on the map or in text.







IsCatalogInMostPopularTable: catalog: 45734, numindb: 8
Update: records affected: 1



GetName: 45734 STARLINK-1468

Hit Count: updated at: Fri, 10 Jul 2020 16:55:03 GMT